Weather History for KPVD - May, 2012

Change the Weather History Date:

Sunday, May 27, 2012

  Actual Average Record
Temperature  
Mean Temperature 72 °F 62 °F  
Max Temperature 81 °F 72 °F 90 °F (1981)
Min Temperature 63 °F 52 °F 35 °F (1972)
Degree Days  
Heating Degree Days 0 5  
Month to date heating degree days 147 209  
Since 1 July heating degree days 4544 5559  
Cooling Degree Days 7 1  
Month to date cooling degree days 21 14  
Year to date cooling degree days 29 16  
Growing Degree Days 22 (Base 50)    
Moisture  
Dew Point 59 °F    
Average Humidity 68    
Maximum Humidity 93    
Minimum Humidity 42    
Precipitation  
Precipitation 0.00 in 0.12 in 1.38 in (1961)
Month to date precipitation 4.24 3.05  
Year to date precipitation 13.94 19.57  
Snow  
Snow 0.00 in 0.00 in 0.00 in (2002)
Month to date snowfall 0.0 0.0  
Since 1 July snowfall 17.8 33.8  
Snow Depth 0.00 in    
Sea Level Pressure  
Sea Level Pressure 30.10 in    
Wind  
Wind Speed 7 mph (SSE)    
Max Wind Speed 15 mph    
Max Gust Speed 20 mph    
Visibility 8 miles    
Events      
T = Trace of Precipitation, MM = Missing Value Source: NWS Daily Summary

Daily Weather History Graph

Daily Weather History Graph

Search for Another Location

Airport or City:

Trip Planner

Search our weather history database for the weather conditions in past years. The results will help you decide how hot, cold, wet, or windy it might be!

Date:

Astronomy

May. 27, 2012 Rise Set
Actual Time 5:16 AM EDT 8:10 PM EDT
Civil Twilight 4:43 AM EDT 8:43 PM EDT
Nautical Twilight 4:01 AM EDT 9:25 PM EDT
Astronomical Twilight 3:12 AM EDT 10:14 PM EDT
Moon 11:20 AM EDT (5/27) 12:12 AM EDT (5/27)
Length of Visible Light 16h 00m
Length of Day
14h 54m
Waxing Crescent, 38% of the Moon is Illuminated
May 27
Waxing Crescent
May 28
First Quarter
Jun 4
Full
Jun 11
Last Quarter
Jun 19
New

Hourly Weather History & Observations

Time (EDT) Temp. Heat Index Dew Point Humidity Pressure Visibility Wind Dir Wind Speed Gust Speed Precip Events Conditions
12:51 AM 64.9 °F - 63.0 °F 93% 30.08 in 6.0 mi Calm Calm - N/A   Scattered Clouds
1:32 AM 64.4 °F - 62.6 °F 94% 30.08 in 2.5 mi South 5.8 mph - N/A   Clear
1:40 AM 64.4 °F - 62.6 °F 94% 30.08 in 6.0 mi Calm Calm - N/A   Clear
1:51 AM 66.0 °F - 64.9 °F 96% 30.09 in 6.0 mi WSW 4.6 mph - N/A   Clear
2:51 AM 66.0 °F - 64.0 °F 93% 30.09 in 9.0 mi WNW 4.6 mph - N/A   Partly Cloudy
3:51 AM 66.0 °F - 57.9 °F 75% 30.09 in 10.0 mi NNW 5.8 mph - N/A   Partly Cloudy
4:51 AM 64.9 °F - 57.0 °F 75% 30.10 in 10.0 mi North 4.6 mph - N/A   Partly Cloudy
5:51 AM 66.0 °F - 55.9 °F 70% 30.12 in 10.0 mi North 8.1 mph - N/A   Mostly Cloudy
6:51 AM 66.0 °F - 55.0 °F 68% 30.15 in 10.0 mi North 8.1 mph - N/A   Mostly Cloudy
7:51 AM 68.0 °F - 55.9 °F 65% 30.16 in 10.0 mi NNE 9.2 mph - N/A   Mostly Cloudy
8:51 AM 72.0 °F - 57.9 °F 61% 30.16 in 10.0 mi NNE 6.9 mph - N/A   Mostly Cloudy
9:51 AM 72.0 °F - 59.0 °F 64% 30.15 in 10.0 mi NE 10.4 mph - N/A   Mostly Cloudy
10:51 AM 75.9 °F - 60.1 °F 58% 30.14 in 10.0 mi NNE 10.4 mph - N/A   Mostly Cloudy
11:51 AM 75.9 °F - 57.0 °F 52% 30.14 in 10.0 mi Variable 3.5 mph - N/A   Mostly Cloudy
12:51 PM 77.0 °F - 55.0 °F 47% 30.12 in 10.0 mi Calm Calm - N/A   Mostly Cloudy
1:51 PM 80.1 °F 80.1 °F 55.0 °F 42% 30.12 in 10.0 mi WNW 4.6 mph - N/A   Scattered Clouds
2:51 PM 80.1 °F 80.1 °F 55.0 °F 42% 30.11 in 10.0 mi SSE 10.4 mph - N/A   Scattered Clouds
3:51 PM 78.1 °F - 57.0 °F 48% 30.09 in 10.0 mi SSE 10.4 mph - N/A   Scattered Clouds
4:51 PM 78.1 °F - 57.0 °F 48% 30.07 in 10.0 mi South 11.5 mph - N/A   Mostly Cloudy
5:51 PM 73.9 °F - 55.9 °F 53% 30.07 in 10.0 mi SSE 10.4 mph - N/A   Partly Cloudy
6:51 PM 73.0 °F - 55.9 °F 55% 30.07 in 10.0 mi South 9.2 mph - N/A   Scattered Clouds
7:51 PM 68.0 °F - 60.1 °F 76% 30.08 in 10.0 mi SSE 8.1 mph - N/A   Scattered Clouds
8:36 PM 64.4 °F - 62.6 °F 94% 30.08 in 9.0 mi SSE 10.4 mph - N/A   Mostly Cloudy
8:51 PM 64.4 °F - 62.6 °F 94% 30.08 in 9.0 mi SSE 9.2 mph - N/A   Mostly Cloudy
8:58 PM 64.4 °F - 62.6 °F 94% 30.09 in 8.0 mi South 8.1 mph - N/A   Overcast
9:40 PM 64.4 °F - 62.6 °F 94% 30.09 in 0.8 mi SSE 8.1 mph - N/A   Overcast
9:51 PM 64.0 °F - 63.0 °F 96% 30.09 in 0.8 mi South 5.8 mph - N/A   Overcast
10:01 PM 64.4 °F - 62.6 °F 94% 30.09 in 1.0 mi SSE 6.9 mph - N/A   Overcast
10:33 PM 64.4 °F - 62.6 °F 94% 30.09 in 2.5 mi South 8.1 mph - N/A   Overcast
10:51 PM 64.0 °F - 63.0 °F 96% 30.08 in 2.5 mi South 8.1 mph - N/A   Overcast
11:51 PM 64.0 °F - 62.1 °F 93% 30.04 in 3.0 mi South 8.1 mph - N/A   Overcast